DW8078 Weather Reports


Display with metric or nautical units.
time (UTC)temp
F
wind
direction
speed
MPH
gust
MPH
rain 1hr
in
rain 24hr
in
rain mn
in
humidity
%
barometer
mb
20171023220648 45 156 1.0 8.0 0.00 0.03 0.00 92 1019.8
20171023215206 46 202 0.0 3.0 0.00 0.03 0.03 92 1019.8
20171023213638 46 145 0.0 4.0 0.00 0.03 0.03 92 1019.6
20171023212137 46 109 0.0 1.0 0.00 0.03 0.03 92 1019.5
20171023210650 46 117 0.0 3.0 0.00 0.03 0.03 92 1019.2
20171023205145 46 128 0.0 3.0 0.00 0.04 0.03 92 1019.1
20171023203634 47 161 0.0 4.0 0.00 0.04 0.03 92 1019.0
20171023202129 47 96 0.0 0.0 0.00 0.04 0.03 92 1019.0
20171023200636 47 74 0.0 4.0 0.00 0.04 0.03 92 1018.6
20171023195125 47 29 0.0 3.0 0.00 0.06 0.03 92 1018.7
20171023193624 47 24 0.0 5.0 0.00 0.06 0.03 91 1018.5
20171023192128 47 21 0.0 1.0 0.00 0.06 0.03 91 1018.3
20171023190642 47 21 0.0 4.0 0.00 0.06 0.03 91 1018.2
20171023185139 47 21 0.0 4.0 0.00 0.07 0.03 91 1018.0
20171023183626 47 22 0.0 4.0 0.00 0.07 0.03 91 1017.9
20171023182115 47 38 0.0 4.0 0.00 0.07 0.03 91 1017.8
20171023180626 47 51 0.0 5.0 0.00 0.07 0.03 90 1017.5
20171023175147 48 72 0.0 7.0 0.00 0.08 0.03 90 1017.2
20171023173609 48 53 0.0 0.0 0.00 0.08 0.03 91 1017.1
20171023172112 48 46 0.0 0.0 0.00 0.08 0.03 91 1017.0
20171023170616 48 46 0.0 2.0 0.00 0.08 0.03 91 1016.8
20171023165123 48 46 0.0 0.0 0.00 0.10 0.03 90 1016.7
20171023163605 48 46 0.0 0.0 0.00 0.10 0.03 90 1016.5
20171023162102 49 46 0.0 6.0 0.00 0.10 0.03 90 1016.4
20171023160607 49 17 0.0 0.0 0.00 0.10 0.03 90 1016.2
20171023155135 50 355 0.0 2.0 0.00 0.10 0.03 90 1016.0
20171023153600 50 340 0.0 0.0 0.00 0.10 0.03 90 1015.7
20171023152109 50 340 0.0 0.0 0.01 0.10 0.03 90 1015.6
20171023145053 50 338 0.0 0.0 0.03 0.10 0.03 89 1015.2
20171023143553 50 339 0.0 0.0 0.03 0.10 0.03 88 1015.0
20171023142051 50 339 0.0 2.0 0.02 0.09 0.02 88 1014.9
20171023140551 51 323 4.0 7.0 0.02 0.09 0.02 87 1014.9
20171023135048 52 331 0.0 0.0 0.00 0.07 0.00 85 1014.8
20171023133547 52 331 0.0 0.0 0.00 0.07 0.00 84 1014.8
20171023132046 52 331 0.0 0.0 0.00 0.07 0.00 83 1014.6
20171023130545 53 331 0.0 4.0 0.00 0.07 0.00 84 1014.4
20171023125043 52 331 0.0 0.0 0.00 0.07 0.00 85 1014.5
20171023123542 52 331 0.0 0.0 0.00 0.07 0.00 84 1014.4
20171023122043 52 331 0.0 2.0 0.00 0.07 0.00 85 1014.3
20171023120539 52 331 0.0 4.0 0.00 0.07 0.00 86 1014.3
20171023115039 52 331 0.0 4.0 0.00 0.07 0.00 86 1014.2
20171023113549 52 303 0.0 0.0 0.00 0.07 0.00 85 1014.2
20171023112037 51 311 0.0 4.0 0.00 0.07 0.00 86 1014.3
20171023110536 51 327 0.0 3.0 0.00 0.07 0.00 86 1014.3
20171023105035 51 299 0.0 0.0 0.00 0.07 0.00 86 1014.1
20171023103534 51 299 0.0 0.0 0.00 0.07 0.00 85 1013.9
20171023102034 51 298 0.0 1.0 0.00 0.07 0.00 86 1013.9
20171023100529 50 302 0.0 0.0 0.00 0.07 0.00 88 1013.7
20171023095037 50 331 0.0 0.0 0.00 0.07 0.00 89 1013.8
20171023093540 49 331 0.0 0.0 0.00 0.07 0.00 90 1013.8
20171023092048 49 331 0.0 0.0 0.00 0.07 0.00 91 1013.7
20171023090522 49 331 0.0 0.0 0.00 0.07 0.00 91 1013.6
20171023085033 49 321 0.0 5.0 0.00 0.07 0.00 91 1013.5
20171023083521 49 355 0.0 0.0 0.00 0.07 0.00 91 1013.2
20171023082015 49 308 0.0 0.0 0.00 0.07 0.00 91 1013.2
20171023080513 48 339 0.0 0.0 0.00 0.07 0.00 92 1013.2
20171023075026 48 325 0.0 6.0 0.00 0.07 0.00 92 1013.2
20171023073510 48 321 1.0 5.0 0.00 0.07 0.00 93 1013.1
20171023072009 48 315 0.0 0.0 0.00 0.07 0.00 93 1013.1
20171023070552 48 331 0.0 0.0 0.00 0.07 0.00 93 1013.1
20171023065023 48 332 0.0 0.0 0.00 0.07 0.00 93 1013.1
20171023063526 48 332 0.0 0.0 0.00 0.07 0.00 93 1013.0
20171023062004 47 331 0.0 0.0 0.00 0.07 0.00 93 1012.7
20171023060501 47 332 0.0 0.0 0.00 0.07 0.00 93 1012.6
20171023055008 48 332 0.0 0.0 0.00 0.07 0.00 93 1012.4
20171023053502 48 332 0.0 0.0 0.00 0.07 0.00 93 1012.2
20171023051959 48 323 0.0 5.0 0.00 0.07 0.00 93 1012.1
20171023050453 48 313 0.0 0.0 0.00 0.07 0.00 93 1012.0
20171023044954 48 322 0.0 0.0 0.00 0.07 0.00 93 1012.0
20171023043456 48 322 0.0 0.0 0.00 0.07 0.00 93 1011.9
20171023041959 48 322 0.0 0.0 0.00 0.07 0.00 93 1011.8
20171023040459 48 322 0.0 0.0 0.00 0.07 0.00 93 1011.8
20171023035017 48 322 0.0 0.0 0.00 0.07 0.00 93 1011.9
20171023033448 48 322 0.0 0.0 0.00 0.07 0.00 93 1011.8
20171023032003 48 322 0.0 0.0 0.00 0.07 0.00 93 1011.8
20171023030447 48 322 0.0 0.0 0.00 0.07 0.00 93 1011.6
20171023025018 48 322 0.0 0.0 0.00 0.07 0.00 93 1011.7
20171023023459 48 316 0.0 0.0 0.00 0.07 0.00 93 1011.7
20171023021955 48 337 0.0 3.0 0.00 0.07 0.00 93 1011.7
20171023020455 48 296 0.0 0.0 0.00 0.07 0.00 93 1011.5
20171023015021 48 317 0.0 0.0 0.00 0.07 0.00 93 1011.4
20171023013444 48 307 0.0 0.0 0.00 0.07 0.00 93 1011.4
20171023011943 48 291 0.0 0.0 0.00 0.07 0.00 93 1011.3
20171023010451 48 284 0.0 0.0 0.00 0.07 0.00 93 1011.4
20171023004959 48 284 0.0 0.0 0.00 0.07 0.00 93 1011.4
20171023003504 48 281 0.0 0.0 0.00 0.07 0.00 93 1011.6
20171023001947 48 277 0.0 0.0 0.00 0.07 0.00 93 1011.9
20171023000436 48 277 0.0 0.0 0.00 0.07 0.00 93 1012.0
20171022234940 48 273 0.0 0.0 0.00 0.07 0.00 93 1011.9
20171022233437 47 263 0.0 0.0 0.00 0.07 0.00 93 1011.9
20171022231934 47 210 0.0 0.0 0.00 0.07 0.00 93 1012.1
20171022230440 47 203 0.0 0.0 0.00 0.07 0.00 93 1011.9
20171022224938 47 204 0.0 0.0 0.00 0.07 0.00 93 1011.9
20171022223437 47 205 0.0 0.0 0.00 0.07 0.00 93 1012.0
20171022221931 47 186 0.0 0.0 0.00 0.07 0.00 93 1012.1